Location: Brabourne
(51.1333°N, 1.0000°E)
Time: 06:29:10
(UTC+00:00)

Meteor 2-8 Rocket - Pass Details

Date: 20 June 2021
Orbit: 937 x 957 km, 82.5° (Epoch: 31 July)

Event Time Altitude Azimuth Distance (km) Brightness Sun altitude
Rises 01:24:56 0° 347° (NNW) 3,636 8.5 -13.0°
Reaches altitude 10° 01:27:27 10° 346° (NNW) 2,689 7.7 -12.8°
Maximum altitude 01:33:33 71° 264° (W) 1,012 4.5 -12.5°
Enters shadow 01:38:55 14° 183° (S) 2,407 6.0 -12.2°
